SCP
0 0 0 0 0 0 0 0 0 0 0 0 0 0 0 0 0 0 0 1 1 1 1 0 0 0 0 0 0 0 1 1 0 0 0 0 0 0 0 0 0 0 0
0 0 0 0 0 0 0 0 0 0 0 0 0 0 0 0 0 0 0 0 1 1 1 0 0 0 0 0 0 0 0 1 1 0 0 0 0 0 0 0 0 0 0
0 0 0 0 0 0 0 0 0 0 0 0 0 0 0 0 0 0 0 0 1 1 1 0 0 0 0 0 0 0 0 1 1 1 0 0 0 0 0 0 0 0 0
0 0 0 0 0 0 0 0 0 0 0 0 0 0 0 0 0 0 0 0 1 1 1 1 0 0 0 0 0 0 0 0 1 1 0 0 0 0 0 0 0 0 0
0 0 0 0 0 0 0 0 0 0 0 0 0 0 0 0 0 0 0 0 1 1 1 1 0 0 0 0 0 0 0 0 0 0 0 0 0 0 0 0 0 0 0
0 0 0 0 0 0 0 0 0 0 0 0 0 0 0 0 0 0 0 0 0 1 1 0 0 0 0 0 0 0 0 0 0 0 0 0 0 0 0 0 0 0 0
0 0 0 0 0 0 0 0 0 0 0 0 0 0 0 0 0 0 0 0 0 0 0 0 0 0 0 0 0 0 0 0 0 0 0 0 0 0 0 0 0 0 0
0 0 0 0 0 0 0 0 0 0 0 0 0 0 0 0 0 0 0 0 0 0 0 0 0 0 0 0 0 0 0 0 0 0 0 0 0 0 0 0 0 0 0
0 0 0 0 0 0 0 0 0 0 0 0 0 0 0 0 0 0 0 0 0 0 0 0 0 0 0 0 0 0 0 0 0 0 0 0 0 0 0 0 0 0 0
0 0 0 0 0 0 0 0 0 0 0 0 0 0 0 0 0 0 0 0 0 0 0 0 0 0 0 0 0 0 0 0 0 0 0 0 0 0 0 0 0 0 0
0 0 0 0 0 0 0 0 0 0 0 0 0 0 0 0 0 0 0 0 0 0 0 0 0 0 0 0 0 0 0 0 0 0 0 0 0 0 0 0 0 0 0
0 0 0 0 0 0 0 0 0 0 0 0 0 0 0 0 0 0 0 0 0 0 0 0 0 0 0 0 0 0 0 0 0 0 0 0 0 0 0 0 0 0 0
0 0 0 0 0 0 0 0 0 0 0 0 0 0 0 0 0 0 0 0 0 0 0 0 0 0 0 0 0 0 0 0 0 0 0 0 0 0 0 0 0 0 0
0 0 0 0 0 0 0 0 0 0 0 0 0 0 0 0 0 0 0 0 0 0 0 0 0 0 0 0 0 0 0 0 0 0 0 0 0 0 0 0 0 0 0
0 0 0 0 0 0 0 0 0 0 0 0 0 0 0 0 0 0 0 0 0 0 0 0 0 0 0 0 0 0 0 0 0 0 0 0 0 0 0 0 0 0 0
0 0 0 0 0 0 0 0 0 0 0 0 0 0 0 0 0 0 0 0 0 0 0 0 0 0 0 0 0 0 0 0 0 0 0 0 0 0 0 0 0 0 0
0 0 0 0 0 0 0 0 0 0 0 0 0 0 0 0 0 0 0 0 0 0 0 0 0 0 0 0 0 0 0 0 0 0 0 0 0 0 0 0 0 0 0
0 0 0 0 0 0 0 0 0 0 0 0 0 0 0 0 0 0 0 0 0 0 0 0 0 0 0 0 0 0 0 0 0 0 0 0 0 0 0 0 0 0 0
0 0 0 0 0 0 0 0 0 0 0 0 0 0 0 0 0 0 0 0 0 0 0 0 0 0 0 0 0 0 0 0 0 0 0 0 0 0 0 0 0 0 0
0 0 0 0 0 0 0 0 0 0 0 0 0 0 0 0 0 0 0 0 0 0 0 0 0 0 0 0 0 0 0 0 0 0 0 0 0 0 0 0 0 0 0
0 0 0 0 0 0 0 0 0 0 0 0 0 0 0 0 0 0 0 0 0 0 0 0 0 0 0 0 0 0 0 0 0 0 0 0 0 0 0 0 0 0 0
0 0 0 0 0 0 0 0 0 0 0 0 0 0 0 0 0 0 0 0 0 0 0 0 0 0 0 0 0 0 0 0 0 0 0 0 0 0 0 0 0 0 0
0 0 0 0 0 0 0 0 0 0 0 0 0 0 0 0 0 0 0 0 0 0 0 0 0 0 0 0 0 0 0 0 0 0 0 0 0 0 0 0 0 0 0
0 0 0 0 0 0 0 0 0 0 0 0 0 0 0 0 0 0 0 0 0 0 0 0 0 0 0 0 0 0 0 0 0 0 0 0 0 0 0 0 0 0 0
0 0 0 0 0 0 0 0 0 0 0 0 0 0 0 0 0 0 0 0 0 0 0 0 0 0 0 0 0 0 0 0 0 0 0 0 0 0 0 0 0 0 0
0 0 0 0 0 0 0 0 0 0 0 0 0 0 0 0 0 0 0 0 0 0 0 0 0 0 0 0 0 0 0 0 0 0 0 0 0 0 0 0 0 0 0
Wind_Speed
4 4 4 4 4 4 4 4 4 4 4 4 4 4 4 4 4 4 4 4 4 5 5 4 4 4 3 3 3 4 4 4 6 6 3 3 3 4 4 4 4 4 4
4 4 4 4 4 4 4 5 5 4 4 4 4 4 4 4 4 4 4 4 4 5 5 5 5 4 4 4 3 4 4 4 5 7 5 3 4 4 4 4 4 4 4
3 4 4 4 4 4 5 5 5 5 5 5 4 4 5 5 4 4 4 4 5 5 5 5 5 5 5 4 4 4 4 5 4 5 6 4 4 3 3 4 4 3 4
3 3 4 4 4 4 5 5 5 5 5 5 5 5 5 5 5 4 4 4 5 5 5 5 5 5 5 5 4 5 5 5 5 4 5 4 4 3 2 3 4 3 4
3 3 3 4 4 4 5 5 5 5 5 5 5 5 5 4 4 5 4 5 5 5 5 5 5 5 6 5 5 5 5 5 5 5 5 4 4 4 4 3 4 4 4
2 3 3 4 4 5 5 5 5 5 5 5 5 5 6 5 7 8 6 5 5 5 5 5 5 5 5 7 8 7 7 6 6 5 6 6 6 5 4 4 4 4 5
2 3 3 4 4 5 5 5 5 5 5 5 5 5 6 7 9 8 7 5 5 5 5 5 5 5 5 5 6 7 7 8 8 6 7 8 6 5 5 5 4 4 5
3 3 3 3 4 4 5 5 5 5 5 5 5 6 6 7 9 8 8 5 5 5 5 5 5 6 6 6 6 6 6 6 7 6 6 7 6 5 5 5 5 5 4
3 3 4 4 4 4 5 5 5 5 5 5 5 6 6 8 9 9 8 4 4 5 5 5 6 6 8 9 6 6 7 6 7 8 8 8 9 8 5 3 2 2 4
3 4 4 4 4 5 5 5 5 5 5 5 6 6 6 7 9 9 8 4 4 5 5 5 6 6 10 10 6 6 7 6 5 6 6 7 6 5 5 3 3 3 3
3 3 3 4 4 4 4 4 4 4 5 5 6 5 5 6 8 9 9 5 4 5 5 5 5 10 11 11 9 6 8 7 5 5 5 4 3 3 3 3 2 3 4
3 3 4 4 4 3 4 4 4 4 4 5 5 6 5 5 6 8 10 8 7 6 6 5 6 11 11 11 8 7 8 6 3 3 3 3 3 3 3 3 3 3 3
2 3 4 4 3 3 3 4 3 3 3 4 4 5 6 5 6 9 10 10 10 6 6 8 10 11 10 7 8 8 5 3 3 3 4 3 3 3 3 2 2 2 3
3 4 3 3 4 3 3 3 3 3 3 4 4 5 6 6 5 5 5 6 7 6 5 6 8 8 7 6 5 5 3 3 3 3 3 3 2 2 2 2 2 2 2
3 4 3 3 3 4 4 3 4 4 4 5 4 4 5 6 8 11 9 6 5 5 5 4 3 4 4 3 3 3 3 3 3 3 3 3 3 2 2 2 1 1 2
3 3 3 3 3 3 4 5 6 7 9 9 9 7 6 9 13 13 13 12 11 8 4 3 4 4 4 4 4 4 4 3 3 3 3 3 3 3 3 2 1 1 2
4 4 3 3 3 3 3 4 5 6 8 9 10 10 9 11 12 12 12 11 8 5 2 3 4 4 4 4 4 4 4 3 3 3 3 3 3 3 2 2 2 2 2
4 4 4 3 3 3 3 4 4 5 6 6 8 10 11 11 11 11 10 7 4 3 3 4 4 4 4 4 4 4 4 3 3 3 3 3 3 2 3 3 2 2 2
4 3 3 3 3 3 3 3 3 4 5 5 5 7 8 10 10 9 7 3 3 4 4 4 4 4 4 4 3 3 3 3 3 3 3 3 3 2 3 3 2 3 3
3 4 4 3 3 3 3 3 3 4 4 4 5 5 4 4 4 5 4 3 4 4 4 5 5 4 4 4 4 3 3 3 3 3 3 3 3 3 3 3 3 2 3
3 3 4 3 3 3 3 4 4 4 4 5 5 6 7 4 4 5 4 4 4 5 5 5 5 5 4 4 4 4 4 4 3 3 3 3 3 3 3 3 2 2 2
3 3 3 3 3 3 3 3 4 4 5 5 5 5 8 4 4 4 4 5 5 5 5 5 5 5 4 4 4 4 4 4 4 3 3 3 3 3 2 2 2 2 2
3 3 3 3 3 4 4 3 4 4 4 5 5 4 4 4 4 4 5 5 5 5 5 4 5 5 5 4 4 4 4 5 4 3 3 3 3 3 2 3 2 2 2
3 3 3 3 3 3 4 4 4 4 4 4 4 4 4 4 5 5 5 5 5 5 5 4 5 6 8 6 4 4 4 4 3 3 4 4 4 3 2 2 2 3 2
3 3 4 4 4 4 4 4 4 4 4 4 4 4 4 4 5 5 5 4 5 6 6 6 5 6 7 8 7 6 6 6 5 3 3 3 3 3 2 3 2 2 2
3 4 4 3 4 4 4 4 4 4 4 4 4 4 4 5 5 5 5 4 5 5 6 6 7 8 8 7 8 8 8 7 5 4 2 2 2 2 2 2 2 2 2
Wind_Direction
10 9 6 359 0 1 360 354 347 343 346 341 333 334 336 337 334 330 326 328 324 320 318 308 299 299 295 297 297 289 281 277 278 287 285 292 280 278 286 276 272 268 277
5 8 3 357 0 2 358 352 348 343 344 339 334 333 333 331 326 323 316 318 311 312 310 307 304 303 294 292 292 293 288 283 277 288 294 286 273 268 279 281 285 284 277
3 5 3 360 0 357 352 347 344 343 343 343 343 341 333 324 320 316 309 306 302 301 303 303 302 300 297 297 295 289 290 293 281 279 287 288 284 276 287 291 285 280 286
358 2 359 351 350 348 346 345 343 343 342 340 338 333 326 323 324 321 318 310 306 307 307 306 301 296 291 291 292 292 295 295 293 286 283 287 285 276 266 279 293 292 288
352 356 345 341 345 348 348 344 341 341 338 334 332 328 322 317 317 318 315 311 310 311 314 312 309 303 306 303 298 296 296 290 293 290 285 286 284 287 273 274 277 294 284
343 338 337 344 348 349 344 339 339 337 332 330 326 322 320 318 321 320 319 313 310 310 311 311 309 303 303 308 306 305 300 289 286 285 282 278 279 279 290 285 287 291 285
324 329 338 342 340 337 335 336 334 331 327 324 321 322 317 315 320 320 320 317 312 307 305 307 310 310 297 296 305 308 303 296 287 278 277 276 276 275 275 271 269 272 273
315 321 328 330 326 327 331 331 326 321 317 317 320 320 317 317 322 321 320 319 312 308 305 303 303 306 306 308 307 302 299 298 294 286 276 277 275 272 261 265 267 278 291
307 311 315 317 316 318 320 319 319 318 318 319 319 320 319 320 326 323 323 323 318 316 313 308 302 301 309 312 305 299 301 303 307 301 299 300 299 298 291 278 275 282 287
291 297 303 306 306 306 307 310 315 316 316 319 318 318 316 315 320 326 328 324 318 316 313 308 300 301 308 309 296 288 289 296 306 309 308 309 304 295 291 258 241 247 264
296 300 302 302 300 297 301 307 310 314 318 316 313 314 312 310 313 322 326 324 315 310 307 305 302 306 307 308 301 287 286 295 298 295 295 299 306 303 299 292 269 244 248
297 296 295 297 297 301 301 306 309 312 312 311 311 313 312 311 314 317 320 316 314 306 301 301 300 307 309 309 306 298 299 301 294 291 289 289 296 299 303 304 299 290 272
290 286 288 292 294 293 292 299 309 308 301 302 304 306 310 313 314 315 312 310 311 307 298 299 303 308 312 311 307 308 308 297 292 288 284 286 293 295 299 308 319 328 321
271 281 287 289 297 298 292 286 287 287 291 296 299 302 307 310 311 314 313 312 310 308 307 308 309 310 312 314 315 313 307 296 290 285 292 298 303 303 297 301 301 323 323
266 274 280 279 283 292 291 282 279 274 271 281 282 286 298 301 304 311 314 308 308 306 317 317 316 319 319 318 316 311 312 313 303 299 294 296 301 307 303 306 293 305 287
265 272 273 278 281 283 289 298 291 288 295 293 293 293 292 298 308 310 311 309 309 311 317 305 302 301 300 300 304 308 309 306 304 300 293 286 287 291 295 293 276 265 277
246 259 266 269 272 276 279 287 300 306 302 303 305 306 307 311 314 315 315 315 311 317 304 292 290 290 292 293 291 291 294 299 302 297 290 286 283 282 280 281 282 274 278
248 253 253 256 261 265 269 275 283 295 306 307 307 308 314 315 316 319 323 326 320 323 303 292 291 291 293 293 292 292 295 301 297 292 289 287 281 279 280 275 272 270 276
248 253 251 255 258 262 268 273 276 280 286 295 306 311 315 317 317 321 329 319 300 302 299 293 290 291 291 289 285 286 285 286 285 282 279 278 276 275 273 270 269 270 266
247 255 255 252 255 259 263 266 271 275 281 288 291 298 316 324 316 318 317 304 295 293 295 294 292 289 289 285 281 280 280 280 281 276 278 279 275 268 266 266 265 267 267
245 251 251 252 251 253 257 261 266 270 274 279 281 288 304 300 292 296 299 297 294 292 293 293 293 293 289 286 282 277 273 275 274 274 276 277 277 276 272 270 271 270 273
235 242 245 248 253 255 260 262 264 267 273 279 288 298 303 299 290 291 291 290 290 287 286 287 289 290 286 283 280 275 272 272 270 268 271 273 272 273 274 273 274 273 273
230 241 251 253 250 255 260 261 262 266 272 276 284 292 295 287 285 286 288 291 294 294 294 287 286 291 292 286 278 269 267 269 264 255 256 263 265 263 263 264 263 270 273
225 235 247 253 251 250 255 260 261 265 270 275 279 282 283 285 286 286 289 293 295 294 295 293 287 288 293 295 289 279 273 273 267 253 245 247 252 253 253 257 258 258 260
225 233 242 246 247 249 253 258 261 266 270 273 276 280 284 284 285 288 291 293 295 296 298 297 295 293 291 289 288 287 286 287 278 262 249 246 247 242 243 248 252 255 256
227 232 241 245 244 244 248 255 261 265 268 272 274 276 279 282 284 288 293 295 296 297 297 296 296 298 296 290 287 290 290 287 281 268 252 242 239 244 243 247 248 243 241